Location: Aranbee
(34.0885°N, 118.2342°W)
Time: 23:20:20
(UTC+00:00)

A-11 Canister half - Pass Details

Date: 01 August 2021
Orbit: 1515 x 1685 km, 47.2° (Epoch: 22 September)

Event Time Altitude Azimuth Distance (km) Brightness Sun altitude
Rises 09:25:15 0° 295° (WNW) 4,940 11.7 -34.1°
Reaches altitude 10° 09:29:19 10° 282° (WNW) 3,948 11.0 -33.8°
Enters shadow 09:30:04 12° 278° (W) 3,790 10.9 -33.7°
